Regional Weather Roundup
Issued by NWS Sterling, VA

Home | Current Version | Previous Version | Graphics & Text | Print | Product List | Glossary On
Versions: 1 2 3 4 5 6 7 8 9 10 11 12 13 14 15 16 17 18 19 20 21 22 23 24 25 26 27
000
ASUS41 KLWX 290511
RWRLWX

REGIONAL WEATHER ROUNDUP
NATIONAL WEATHER SERVICE BALTIMORE MD/WASHINGTON DC
100 AM EDT FRI JUL 29 2016

Note: "FAIR" indicates few or no clouds below 12,000 feet
with no significant weather and/or obstructions to visibility.
 TC=TEMPERATURE CELSIUS

 * =Non NWS site. Station does not report precipitation (e.g. rain,
    snow, etc.), thunder, or fog.

DCZ001-MDZ009-015-VAZ040>042-051-053>054-290600-
WASHINGTON METRO

CITY           SKY/WX    TMP DP  RH WIND       PRES   REMARKS
WASHINGTON NAT LGT RAIN  77  75  93 CALM      29.84S
DULLES         CLOUDY    75  73  93 N7        29.85S
ANDREWS AFB    CLOUDY    75  73  95 E3        29.84R
FT BELVOIR     MOCLDY    75  73  94 VRB2      29.83F
QUANTICO       CLOUDY    77  74  90 SE9       29.85R
LEESBURG*      CLOUDY    75  75 100 N8        29.86F FOG
MANASSAS*      CLOUDY    75  75 100 CALM      29.85R
GAITHERSBURG*  CLOUDY    73  70  88 CALM      29.89F

$$

MDZ006>007-011-014-290600-
BALTIMORE METRO

CITY           SKY/WX    TMP DP  RH WIND       PRES   REMARKS
BWI AIRPORT    CLOUDY    75  73  93 CALM      29.84F
MD SCIENCE CTR   N/A     76  73  91 MISG      29.84F
MARTIN STATE   LGT RAIN  73  73 100 CALM      29.86S
ANNAPOLIS      HVY RAIN  77  75  93 E6        29.83S FOG
FORT MEADE*    CLOUDY    73  72  94 N5        29.86F

$$

MDZ012-015-019>023-290600-
MARYLAND EASTERN SHORE

CITY           SKY/WX    TMP DP  RH WIND       PRES   REMARKS
OCEAN CITY       N/A    N/A N/A N/A MISG      29.83F
SALISBURY      NOT AVBL
BAY BRIDGE AP* LGT RAIN  75  73  94 E7        29.84F FOG
CAMBRIDGE*     CLOUDY    72  72 100 CALM      29.83F
EASTON*        CLOUDY    75  75 100 NE5       29.89R

$$

MDZ017>025-290600-
SOUTHERN MARYLAND

CITY           SKY/WX    TMP DP  RH WIND       PRES   REMARKS
PATUXENT RIVER CLOUDY    76  73  91 S8        29.83R THUNDER FOG
ST INIGOES     TSTM      77  75  93 S9        29.85R FOG
LEONARDTOWN*   CLOUDY    73  72  94 SE3       29.86R

$$

MDZ003>005-290600-
NORTH CENTRAL MARYLAND

CITY           SKY/WX    TMP DP  RH WIND       PRES   REMARKS
FREDERICK*     DRIZZLE   72  72 100 NE7       29.87F
HAGERSTOWN APT RAIN      71  69  93 N6        29.89S FOG

$$

MDZ501>502-290600-
WESTERN MARYLAND

CITY           SKY/WX    TMP DP  RH WIND       PRES   REMARKS
OAKLAND*       FOG       63  63 100 CALM      30.00S VSB 1/2
CUMBERLAND*    CLOUDY    70  70 100 CALM      29.95S

$$

VAZ025>031-290600-
SHENANDOAH VALLEY

CITY           SKY/WX    TMP DP  RH WIND       PRES   REMARKS
WINCHESTER*    DRIZZLE   70  70 100 NW3       29.88F
FRONT ROYAL*   CLOUDY    70  70 100 N3        29.89R
LURAY*         NOT AVBL
NEW MARKET*    CLOUDY   N/A N/A N/A CALM      29.89S
STAUNTON*      LGT RAIN  70  69  96 CALM      29.93S
WAYNESBORO*    CLOUDY    70  69  96 N5        29.92S

$$

WVZ021-048>050-054>055-290600-
EASTERN WEST VIRGINIA PANHANDLE

CITY           SKY/WX    TMP DP  RH WIND       PRES   REMARKS
MARTINSBURG    HVY RAIN  70  69  97 N10       29.87F FOG
PETERSBURG*    RAIN      70  69  97 CALM      29.92S

$$

VAZ036>039-050-290600-
CENTRAL FOOTHILLS

CITY           SKY/WX    TMP DP  RH WIND       PRES   REMARKS
CHARLOTTESVILL CLOUDY    75  71  87 CALM      29.87S
CULPEPER*      CLOUDY    73  73  99 CALM      29.86S
ORANGE*        LGT RAIN  73  73 100 CALM      29.88S
GORDONSVILLE*  CLOUDY    73  72  98 CALM      29.86S
WARRENTON*     CLOUDY    75  70  84 CALM      29.84S

$$

VAZ055>057-290600-
NORTH AND CENTRAL PIEDMONT

CITY           SKY/WX    TMP DP  RH WIND       PRES   REMARKS
FREDERICKSBRG* LGT RAIN  76  76 100 CALM      29.83S
STAFFORD*      CLOUDY    75  73  94 CALM      29.88S

$$

NCZ024-NYZ072-PAZ021-071-VAZ022-071-290600-
OTHER REGIONAL OBSERVATIONS

CITY           SKY/WX    TMP DP  RH WIND       PRES   REMARKS
NEW YORK CITY  LGT RAIN  76  71  85 CALM      29.89F
PHILADELPHIA   CLOUDY    75  72  90 VRB6      29.86S
PITTSBURGH     PTCLDY    67  65  93 CALM      29.93S
ROANOKE        CLOUDY    73  71  93 W6        29.93R
RICHMOND       MOCLDY    75  74  96 E3        29.84R
RALEIGH        CLEAR     79  71  76 SW7       29.88R

$$

ANZ530>537-290600-
MARINE OBSERVATIONS

STATION/POSITION TIME  TEMP    WIND        PRES
                       AIR SEA DIR/SP/G
                 (UTC) (F)     (DEG/KT/KT) (MB)
THOMAS PT LIGHT  0500   76 84  100/ 12/ 13 1011.6F
BALT KEY BRIDGE  0448   76      10/  6/  7 1010.3F
COVE POINT       0448   77     220/  6/ 10 1011.1R
LEWISETTA        0448   76 86  150/  5/  7 1010.4R
SOLOMONS ISLAND  0448   78 86  200/ 11/ 13   N/A
PINEY POINT      0448          190/ 12/ 14   N/A

$$





USA.gov is the U.S. government's official web portal to all federal, state and local government web resources and services.